BGSF

Kangerlussuaq Airport

Kangerlussuaq, Greenland
Issued Wind Visibility Ceiling Temperature Dew Point Humidity Barometer
Aug-20
08:50 UTC
050°
8 KTS
  Broken
7,500' AGL
C
41° F
C
32° F
70% 29.82" Hg
1010 hPa
Aug-20
07:50 UTC
070°
10 KTS
    C
37° F
C
34° F
87% 29.79" Hg
1009 hPa
Aug-20
06:50 UTC
050°
8 KTS
  Broken
8,000' AGL
C
36° F
C
32° F
87% 29.79" Hg
1009 hPa
Aug-20
05:50 UTC
050°
6 KTS
    C
34° F
C
32° F
93% 29.79" Hg
1009 hPa
Aug-20
04:50 UTC
300°
4 KTS
    C
36° F
C
32° F
87% 29.76" Hg
1008 hPa
Aug-20
03:50 UTC
270°
8 KTS
    C
39° F
C
32° F
75% 29.76" Hg
1008 hPa
Aug-20
02:50 UTC
300°
13 KTS
  Broken
2,400' AGL
C
39° F
C
34° F
81% 29.76" Hg
1008 hPa
Aug-20
01:50 UTC
300°
15 KTS
  Broken
2,200' AGL
C
39° F
C
34° F
81% 29.76" Hg
1008 hPa
Aug-20
00:50 UTC
310°
13 KTS
  Overcast
3,600' AGL
C
41° F
C
34° F
76% 29.76" Hg
1008 hPa
Aug-19
23:50 UTC
310°
14 KTS
  Broken
13,000' AGL
C
41° F
C
34° F
76% 29.73" Hg
1007 hPa
Aug-19
22:50 UTC
310°
14 KTS
  Broken
7,500' AGL
C
43° F
C
36° F
76% 29.73" Hg
1007 hPa
Aug-19
21:50 UTC
310°
11 KTS
  Broken
8,000' AGL
C
45° F
C
36° F
71% 29.73" Hg
1007 hPa
Aug-19
20:50 UTC
310°
10 KTS
  Broken
18,000' AGL
C
46° F
C
37° F
71% 29.73" Hg
1007 hPa
Aug-19
19:50 UTC
280°
6 KTS
  Broken
7,000' AGL
C
48° F
C
37° F
66% 29.73" Hg
1007 hPa
Aug-19
18:50 UTC
200°
3 KTS
  Broken
8,500' AGL
C
48° F
C
39° F
71% 29.73" Hg
1007 hPa
Aug-19
17:50 UTC
160°
3 KTS
  Broken
7,500' AGL
C
46° F
C
39° F
76% 29.73" Hg
1007 hPa
Aug-19
16:50 UTC
250°
5 KTS
  Broken
2,100' AGL
C
46° F
C
39° F
76% 29.73" Hg
1007 hPa
Aug-19
15:50 UTC
240°
8 KTS
  Broken
2,800' AGL
C
45° F
C
39° F
81% 29.73" Hg
1007 hPa
Aug-19
14:50 UTC
310°
16 KTS
  Broken
8,000' AGL
C
46° F
C
36° F
66% 29.7" Hg
1006 hPa
Aug-19
13:50 UTC
290°
17 KTS
10,000+ meters   C
48° F
C
36° F
62% 29.68" Hg
1005 hPa
VFR
Aug-19
12:50 UTC
270°
10 KTS
    11° C
52° F
C
37° F
58% 29.65" Hg
1004 hPa
Aug-19
11:50 UTC
250°
11 KTS
  Broken
7,500' AGL
C
48° F
C
39° F
71% 29.65" Hg
1004 hPa
Aug-19
10:50 UTC
160°
11 KTS
  Broken
6,500' AGL
11° C
52° F
C
36° F
54% 29.65" Hg
1004 hPa